Satellite: HUBBLE
Catalog number: 20580
Epoch time:      10028.21046764
Element set:     510
Inclination:      028.4700 deg
RA of node:       073.5965 deg
Eccentricity:    0.0003596
Arg of perigee:   151.8346 deg
Mean anomaly:     208.2442 deg
Mean motion:   15.00884921 rev/day
Decay rate:       4.21e-06 rev/day^2
Epoch rev:           88369
Checksum:              279

Satellite: ISS
Catalog number: 25544
Epoch time:      10028.85115464
Element set:     465
Inclination:      051.6433 deg
RA of node:       226.2042 deg
Eccentricity:    0.0010963
Arg of perigee:   254.1893 deg
Mean anomaly:     190.1202 deg
Mean motion:   15.75468411 rev/day
Decay rate:     1.3966e-04 rev/day^2
Epoch rev:           64152
Checksum:              278

Satellite: CO-58
Catalog number: 28895
Epoch time:      10027.74852418
Element set:    0499
Inclination:      098.0346 deg
RA of node:       276.7189 deg
Eccentricity:    0.0018230
Arg of perigee:   008.2708 deg
Mean anomaly:     351.8815 deg
Mean motion:   14.59837824 rev/day
Decay rate:       -8.4e-07 rev/day^2
Epoch rev:           22649
Checksum:              354

Satellite: FALCON
Catalog number: 30776
Epoch time:      10027.77379882
Element set:    0764
Inclination:      035.4319 deg
RA of node:       176.6292 deg
Eccentricity:    0.0001644
Arg of perigee:   002.7907 deg
Mean anomaly:     357.2818 deg
Mean motion:   15.03437469 rev/day
Decay rate:       6.25e-06 rev/day^2
Epoch rev:           15891
Checksum:              321

Satellite: MAST
Catalog number: 31126
Epoch time:      10026.62421311
Element set:    0787
Inclination:      097.9580 deg
RA of node:       075.8170 deg
Eccentricity:    0.0094117
Arg of perigee:   306.6537 deg
Mean anomaly:     052.6030 deg
Mean motion:   14.53547979 rev/day
Decay rate:       -5.0e-07 rev/day^2
Epoch rev:           14749
Checksum:              293

Satellite: CAPE1
Catalog number: 31130
Epoch time:      10027.64064426
Element set:     800
Inclination:      097.9585 deg
RA of node:       074.4787 deg
Eccentricity:    0.0102178
Arg of perigee:   310.6457 deg
Mean anomaly:     048.5888 deg
Mean motion:   14.52126380 rev/day
Decay rate:      -2.62e-06 rev/day^2
Epoch rev:           14726
Checksum:              297

Satellite: COMPASS
Catalog number: 32787
Epoch time:      10028.32264326
Element set:     581
Inclination:      097.9136 deg
RA of node:       094.9010 deg
Eccentricity:    0.0016262
Arg of perigee:   024.0090 deg
Mean anomaly:     336.1873 deg
Mean motion:   14.81742382 rev/day
Decay rate:       -5.6e-07 rev/day^2
Epoch rev:            9478
Checksum:              291

Satellite: AAUSAT2
Catalog number: 32788
Epoch time:      10028.67640469
Element set:     575
Inclination:      097.9147 deg
RA of node:       095.3511 deg
Eccentricity:    0.0015624
Arg of perigee:   025.4964 deg
Mean anomaly:     334.7088 deg
Mean motion:   14.81877792 rev/day
Decay rate:       5.28e-06 rev/day^2
Epoch rev:            9484
Checksum:              345

Satellite: DO-64
Catalog number: 32789
Epoch time:      10027.81722040
Element set:    0593
Inclination:      097.9190 deg
RA of node:       094.8300 deg
Eccentricity:    0.0016064
Arg of perigee:   025.1606 deg
Mean anomaly:     335.0387 deg
Mean motion:   14.81937803 rev/day
Decay rate:       7.59e-06 rev/day^2
Epoch rev:           09471
Checksum:              311

Satellite: CO-66
Catalog number: 32791
Epoch time:      10028.66298363
Element set:     571
Inclination:      097.9144 deg
RA of node:       095.2650 deg
Eccentricity:    0.0016801
Arg of perigee:   021.3098 deg
Mean anomaly:     338.8818 deg
Mean motion:   14.81550452 rev/day
Decay rate:       -9.9e-07 rev/day^2
Epoch rev:            9479
Checksum:              334

Satellite: RS-30
Catalog number: 32953
Epoch time:      10027.67522514
Element set:    0512
Inclination:      082.5035 deg
RA of node:       117.0615 deg
Eccentricity:    0.0019626
Arg of perigee:   051.9282 deg
Mean anomaly:     308.3564 deg
Mean motion:   12.43003112 rev/day
Decay rate:        1.0e-07 rev/day^2
Epoch rev:           07628
Checksum:              251

Satellite: TACSAT-3
Catalog number: 35001
Epoch time:      10027.93821503
Element set:    0207
Inclination:      040.4568 deg
RA of node:       335.5852 deg
Eccentricity:    0.0022608
Arg of perigee:   031.4754 deg
Mean anomaly:     328.7383 deg
Mean motion:   15.40117349 rev/day
Decay rate:      4.787e-05 rev/day^2
Epoch rev:           03899
Checksum:              295

Satellite: PHARMSAT
Catalog number: 35002
Epoch time:      10028.91849546
Element set:     193
Inclination:      040.4703 deg
RA of node:       328.2922 deg
Eccentricity:    0.0025345
Arg of perigee:   043.7333 deg
Mean anomaly:     316.5444 deg
Mean motion:   15.40795409 rev/day
Decay rate:      3.971e-05 rev/day^2
Epoch rev:            3915
Checksum:              285

Satellite: HAWKSAT1
Catalog number: 35003
Epoch time:      10027.93942732
Element set:    0202
Inclination:      040.4619 deg
RA of node:       332.0787 deg
Eccentricity:    0.0024396
Arg of perigee:   042.6117 deg
Mean anomaly:     317.6563 deg
Mean motion:   15.42306118 rev/day
Decay rate:      8.147e-05 rev/day^2
Epoch rev:           03903
Checksum:              269

